Regional Weather Roundup
Issued by NWS

Home | Current Version | Previous Version | Text Only | Print | Product List | Glossary On
Versions: 1 2 3 4 5 6 7 8 9 10 11 12 13 14 15 16 17 18 19 20 21 22 23 24 25 26 27 28 29 30 31 32 33 34 35 36 37 38 39 40 41 42 43 44 45 46 47 48 49 50
000
ASUS43 KDMX 270306
RWRIA

WEATHER ROUNDUP FOR IOWA
NATIONAL WEATHER SERVICE DES MOINES IA
900 PM CST SUN FEB 26 2017

NOTE: "FAIR" INDICATES FEW OR NO CLOUDS BELOW 12,000 FEET WITH NO
SIGNIFICANT WEATHER AND/OR OBSTRUCTIONS TO VISIBILITY.

* - THESE STATIONS ARE NOT NWS STATIONS...THUS NOT UNDER NWS
QUALITY CONTROL.  THEY ALSO DO NOT REPORT WEATHER SUCH
AS PRECIPITATION OR FOG.

IAZ001>003-012>014-020>022-031>034-043>046-270400-
   NORTHWEST IOWA

CITY           SKY/WX    TMP DP  RH WIND       PRES   REMARKS
CARROLL *        N/A     28  25  86 CALM      29.99R
CHEROKEE *       N/A     19  17  91 S5        29.97R WCI  13
DENISON *        N/A     25  23  93 SE3       29.97R
LE MARS *        N/A     27  23  86 S8        29.96S WCI  18
SHELDON *        N/A     28  28 100 S10       29.92R WCI  19
SIOUX CITY       N/A     23  19  85 SE7       29.97R WCI  15
SPENCER          N/A     21  18  88 S6        29.95R WCI  13
STORM LAKE *     N/A     25  21  86 SW9       29.96R WCI  15
$$

IAZ055>058-069>071-079>083-090>094-270400-
   SOUTHWEST IOWA

CITY           SKY/WX    TMP DP  RH WIND       PRES   REMARKS
ATLANTIC *       N/A     28  27  93 CALM      29.99R
AUDUBON *        N/A     25  21  86 CALM      29.99R
CLARINDA *     CLOUDY    30  27  86 CALM      30.03R
COUNCIL BLFS *   N/A     32  23  69 E6        29.98R WCI  26
CRESTON *      CLOUDY    32  21  64 NE5       30.01R WCI  27
HARLAN  *        N/A     25  25 100 CALM      30.02R
LAMONI         CLOUDY    37  22  54 NE3       30.01R
RED OAK *        N/A     28  25  86 CALM      30.00S
SHENANDOAH *     N/A     32  25  74 CALM      30.02R
$$

IAZ047>049-059>061-072>074-084-270400-
   CENTRAL IOWA

CITY           SKY/WX    TMP DP  RH WIND       PRES   REMARKS
AMES             N/A     28  27  96 CALM      30.01R
ANKENY *         N/A     27  23  86 CALM      30.03R
BOONE *          N/A     30  27  86 W5        29.99R WCI  25
CHARITON *     CLOUDY    36  19  51 E5        30.02R WCI  32
DES MOINES       N/A     34  20  56 CALM      30.02R
GRINNELL*        N/A     32  24  70 NW3       30.02R
KNOXVILLE *    CLOUDY    36  19  51 N5        30.00R WCI  32
MARSHALLTOWN     N/A     27  24  89 CALM      30.00R
NEWTON *         N/A     32  21  64 CALM      30.01R
PELLA *          N/A     32  21  64 CALM      30.03R
PERRY *          N/A     31  28  87 CALM      30.00R
$$

IAZ004>006-015-016-023>025-035-036-270400-
   NORTH CENTRAL IOWA

CITY           SKY/WX    TMP DP  RH WIND       PRES   REMARKS
ALGONA *         N/A     21  21 100 S10       29.96R WCI  10
CLARION *        N/A     18  18 100 S6        29.99R WCI   9
ESTHERVILLE      N/A     21  20  96 S7        29.94R WCI  12
FORT DODGE *     N/A     25  18  74 CALM      29.99R
MASON CITY       N/A     25  20  81 SW9       29.99R WCI  15
FOREST CITY *  FOG       12  10  92 SE3       29.97R VSB 1/2
WEBSTER CITY *   N/A     19  18  93 S5        29.98R WCI  13
IOWA FALLS *     N/A     27  25  92 SW6       30.01R WCI  21
$$

IAZ007>011-017>019-026>030-037>042-050>054-066-270400-
   NORTHEAST IOWA

CITY           SKY/WX    TMP DP  RH WIND       PRES   REMARKS
CEDAR RAPIDS     N/A     28  23  81 NW7       30.00R WCI  21
CHARLES CITY *   N/A     23  23 100 SW6       29.99R WCI  16
CLINTON *        N/A     32  26  78 S3        30.03R
DECORAH *        N/A     27  23  86 SW3       29.98R
DUBUQUE          N/A     31  24  75 NW3       30.00R
MONTICELLO *     N/A     28  25  86 CALM      30.01R
OELWEIN *        N/A     28  28 100 W7        30.00R WCI  21
WATERLOO         N/A     23  20  88 SW3       30.01R
$$

IAZ064-065-067-068-078-270400-
   EAST CENTRAL IOWA

CITY           SKY/WX    TMP DP  RH WIND       PRES   REMARKS
DAVENPORT        N/A     33  24  69 S7        30.03R WCI  27
IOWA CITY        N/A     31  22  69 CALM      30.04R
MUSCATINE *    CLOUDY    36  27  69 CALM      30.04R
QUAD CITIES    MOCLDY    37  30  75 CALM      30.03R
$$

IAZ062-063-075>077-085>089-095>099-270400-
   SOUTHEAST IOWA

CITY           SKY/WX    TMP DP  RH WIND       PRES   REMARKS
BURLINGTON     CLOUDY    41  34  76 CALM      30.04R
FAIRFIELD *    CLOUDY    41  32  70 W3        30.03R
KEOKUK *       MOCLDY    39  23  52 S8        30.05R WCI  34
CENTERVILLE *  MOCLDY    39  32  75 CALM      30.03R
OTTUMWA        CLOUDY    37  23  56 CALM      30.03R
WASHINGTON *   CLOUDY    32  25  74 S6        30.05R WCI  26
$$

ABBREVIATIONS USED IN REMARKS
   TC - TEMPERATURES IN CELSIUS
  WCI - WIND CHILL INDEX
   HX - HEAT INDEX
  VSB - VISIBILITY
$$




USA.gov is the U.S. government's official web portal to all federal, state and local government web resources and services.